This is the latest recevied weather packets stored in our database for station/object KE8WMS. If no packets are shown the sender has not sent any weather packets the latest 10 day(s).
| Time | Temp. | Humidity | Pressure | Rain* | Wind** | Luminosity | Snow |
|---|---|---|---|---|---|---|---|
| 1778154491 | 7.22° C | 83% | 1009.8 hPa | 0 mm | - | 71 W/m² | - |
| 1778154188 | 7.22° C | 83% | 1010.2 hPa | 0 mm | - | 64 W/m² | - |
| 1778153886 | 6.67° C | 84% | 1010.3 hPa | 0 mm | - | 61 W/m² | - |
| 1778153582 | 6.67° C | 85% | 1010.3 hPa | 0 mm | - | 58 W/m² | - |
| 1778153280 | 6.67° C | 86% | 1010.3 hPa | 0 mm | - | 65 W/m² | - |
| 1778152977 | 6.11° C | 87% | 1010.2 hPa | 0 mm | - | 57 W/m² | - |
| 1778152675 | 6.11° C | 89% | 1010.8 hPa | 0 mm | - | 41 W/m² | - |
| 1778152371 | 6.11° C | 89% | 1010.2 hPa | 0 mm | - | 41 W/m² | - |
| 1778152067 | 5.56° C | 90% | 1010.2 hPa | 0 mm | - | 42 W/m² | - |
| 1778151764 | 5.56° C | 90% | 1010.1 hPa | 0 mm | - | 29 W/m² | - |
| 1778151461 | 5.56° C | 90% | 1010.2 hPa | 0 mm | - | 19 W/m² | - |
| 1778151156 | 5.56° C | 90% | 1010 hPa | 0 mm | - | 15 W/m² | - |
| 1778150854 | 5.56° C | 90% | 1009.8 hPa | 0 mm | - | 12 W/m² | - |
| 1778150550 | 5.56° C | 90% | 1009.6 hPa | 0 mm | - | 12 W/m² | - |
| 1778150246 | 5.56° C | 90% | 1009.6 hPa | 0 mm | - | 10 W/m² | - |
| 1778149943 | 5° C | 91% | 1009.5 hPa | 0 mm | - | 8 W/m² | - |
| 1778149639 | 5° C | 91% | 1009.8 hPa | 0 mm | - | 5 W/m² | - |
| 1778149336 | 5° C | 92% | 1009.8 hPa | 0 mm | - | 3 W/m² | - |
| 1778149032 | 5° C | 91% | 1009.5 hPa | 0 mm | - | 2 W/m² | - |
| 1778148727 | 5° C | 91% | 1009.8 hPa | 0 mm | - | 1 W/m² | - |
| 1778148425 | 5° C | 91% | 1009.6 hPa | 0 mm | - | 0 W/m² | - |
| 1778148123 | 5° C | 91% | 1009.6 hPa | 0 mm | - | 0 W/m² | - |
| 1778147821 | 5° C | 90% | 1009.9 hPa | 0 mm | - | 0 W/m² | - |
| 1778147517 | 5° C | 90% | 1009.7 hPa | 0 mm | - | 0 W/m² | - |
| 1778147214 | 5° C | 90% | 1009.6 hPa | 0 mm | - | 0 W/m² | - |
* Rain latest hour (hover to see other rain measurements)
** Current wind speed in m/s (hover to see current wind gust speed)